User: anonymous   Login
Location: Caltech
(34.1382°N, 118.1253°W)
Time: 23:02:15
(UTC-08:00)
Language:

Cosmos 1937 Rocket - Orbit

View from above orbital plane
View from above orbital plane
View from above satellite
View from above satellite

Ground track
Ground track

The orbit data is extracted from the following two-line orbital elements,

1 19039U 88029B   14355.09152090  .00000513  00000-0  17720-3 0  2085
2 19039 074.0471 173.2878 0024222 214.2600 285.0549 14.38111638400159
Epoch (UTC): 21 December 2014 02:11:47
Eccentricity: 0.0024222
inclination: 74.0471°
perigee height: 747 km
apogee height: 782 km
right ascension of ascending node: 173.2878°
argument of perigee: 214.2600°
revolutions per day: 14.38111638
mean anomaly at epoch: 285.0549°
orbit number at epoch: 40015

The dashed part of the orbit path shows where the satellite is in the earth's shadow,  

DLR